Content
SEND FEEDBACK

Daily
Averages
Monthly
Summary
United States of America

ROHNERVILLE, CALIFORNIA


Home > North America > United States > California
Elevation: 390 feet     Latitude: 40 33N     Longitude: 124 07W

WEATHER
 
SELECT A DAY
Number of Records: 68,039;   Date Range: 9/21/11 - 12/16/14
 
SHARE

PRINT THIS DATA

[ ← Previous Day ]
WEATHER ALMANAC - MARCH 23, 2013
[ Next Day → ]
[ °C ]   °F
Weather ElementAverageHighLow
Temperature42.5 °F51.8 °F (2:55 pm)32 °F (4:55 am)
Dewpoint38.1 °F42.8 °F (10:55 pm)32 °F (4:55 am)
Humidity85.8 %100 % (12:35 am)62 % (12:15 pm)
Barometer30.24 in30.27 in (12:55 am)30.20 in (4:35 pm)
Wind Speed6.2 mph17.3 mph (12:15 pm)
Wind Gust21.9 mph (3:55 pm)
Weather ElementAverage
Visibility10 mi
Wind DirectionSSE (158.1 °)

Weather ElementTotal
Precipitation---
Heating Degree Days23.1 (Base 65)
Averaged from 69 records on March 23, 2013
WEATHER CONDITIONS BREAKOUT
WIND DIRECTION BREAKOUT
WEATHER BY HOUR - MARCH 23, 2013
[ °C ]   °F
Local TimeTemperatureDewpointHumidityBarometerVisibilityWind DirectionWind SpeedGust SpeedPrecipitationEventsConditions
12:35 AM41.0 °F41.0 °F100 %30.26 in10.0 miCalmClear
12:55 AM41.0 °F41.0 °F100 %30.27 in10.0 miCalmClear
1:15 AM39.2 °F39.2 °F100 %30.27 in10.0 miWSW (250°)3.5 mphClear
1:35 AM39.2 °F39.2 °F100 %30.27 in10.0 miCalmClear
1:55 AM37.4 °F37.4 °F100 %30.27 in10.0 miCalmClear
2:15 AM37.4 °F37.4 °F100 %30.27 in10.0 miCalmClear
2:35 AM37.4 °F37.4 °F100 %30.27 in10.0 miCalmClear
2:55 AM35.6 °F35.6 °F100 %30.27 in10.0 miCalmClear
3:15 AM35.6 °F35.6 °F100 %30.26 in10.0 miCalmClear
3:35 AM37.4 °F37.4 °F100 %30.26 in10.0 miCalmClear
3:55 AM37.4 °F37.4 °F100 %30.25 in10.0 miCalmClear
4:35 AM33.8 °F33.8 °F100 %30.24 in9.0 miCalmClear
4:55 AM32.0 °F32.0 °F100 %30.25 in10.0 miCalmClear
5:15 AM32.0 °F32.0 °F100 %30.25 in10.0 miCalmClear
5:55 AM32.0 °F32.0 °F100 %30.24 in10.0 miCalmClear
6:15 AM32.0 °F32.0 °F100 %30.24 in10.0 miSE (130°)5.8 mphClear
6:35 AM32.0 °F32.0 °F100 %30.25 in10.0 miCalmClear
6:55 AM32.0 °F32.0 °F100 %30.26 in10.0 miSE (130°)5.8 mphClear
7:15 AM32.0 °F32.0 °F100 %30.26 in10.0 miCalmClear
7:35 AM32.0 °F32.0 °F100 %30.26 in10.0 miSSE (150°)6.9 mphClear
7:55 AM32.0 °F32.0 °F100 %30.26 in10.0 miCalmClear
8:15 AM35.6 °F35.6 °F100 %30.26 in10.0 miESE (110°)8.1 mphClear
8:35 AM37.4 °F37.4 °F100 %30.26 in10.0 miCalmClear
8:55 AM37.4 °F37.4 °F100 %30.26 in10.0 miCalmClear
9:15 AM39.2 °F39.2 °F100 %30.26 in10.0 miCalmClear
9:35 AM41.0 °F39.2 °F93 %30.26 in10.0 miCalmClear
9:55 AM42.8 °F39.2 °F87 %30.26 in10.0 miCalmClear
10:15 AM44.6 °F39.2 °F81 %30.26 in10.0 miCalmClear
10:35 AM44.6 °F39.2 °F81 %30.26 in10.0 miCalmClear
10:55 AM46.4 °F39.2 °F76 %30.26 in10.0 miWest (280°)5.8 mphClear
11:15 AM48.2 °F37.4 °F66 %30.26 in10.0 miWNW (290°)8.1 mphClear
11:35 AM48.2 °F37.4 °F66 %30.26 in10.0 miNW (310°)11.5 mphClear
11:55 AM48.2 °F37.4 °F66 %30.26 in10.0 miNW (310°)13.8 mphClear
12:15 PM48.2 °F35.6 °F62 %30.25 in10.0 miNW (310°)17.3 mph20.7 mphClear
12:35 PM48.2 °F37.4 °F66 %30.25 in10.0 miNW (320°)15.0 mphClear
12:55 PM48.2 °F35.6 °F62 %30.26 in10.0 miWNW (290°)15.0 mphClear
1:15 PM50.0 °F37.4 °F62 %30.25 in10.0 miNW (310°)16.1 mphClear
1:35 PM50.0 °F37.4 °F62 %30.24 in10.0 miWNW (290°)12.7 mph19.6 mphClear
1:55 PM50.0 °F39.2 °F66 %30.23 in10.0 miWNW (290°)12.7 mph17.3 mphClear
2:15 PM50.0 °F41.0 °F71 %30.22 in10.0 miWNW (300°)13.8 mphClear
2:35 PM50.0 °F39.2 °F66 %30.21 in10.0 miWNW (300°)16.1 mph19.6 mphClear
2:55 PM51.8 °F39.2 °F62 %30.21 in10.0 miWNW (300°)15.0 mphClear
3:15 PM50.0 °F37.4 °F62 %30.21 in10.0 miWNW (300°)15.0 mphClear
3:35 PM50.0 °F37.4 °F62 %30.21 in10.0 miWNW (300°)15.0 mph20.7 mphClear
3:55 PM50.0 °F39.2 °F66 %30.21 in10.0 miNW (310°)15.0 mph21.9 mphClear
4:15 PM50.0 °F39.2 °F66 %30.21 in10.0 miWNW (300°)13.8 mphClear
4:35 PM50.0 °F39.2 °F66 %30.20 in10.0 miWNW (300°)17.3 mph21.9 mphClear
4:55 PM50.0 °F39.2 °F66 %30.21 in10.0 miWNW (300°)15.0 mphClear
5:15 PM50.0 °F39.2 °F66 %30.22 in10.0 miNW (320°)15.0 mph18.4 mphClear
5:35 PM50.0 °F39.2 °F66 %30.21 in10.0 miNW (310°)10.4 mphClear
5:55 PM48.2 °F39.2 °F71 %30.20 in10.0 miWNW (300°)11.5 mph16.1 mphClear
6:15 PM48.2 °F39.2 °F71 %30.21 in10.0 miWNW (300°)12.7 mph16.1 mphClear
6:35 PM48.2 °F41.0 °F76 %30.21 in10.0 miWNW (290°)9.2 mphClear
6:55 PM46.4 °F41.0 °F81 %30.21 in10.0 miWNW (300°)9.2 mphClear
7:15 PM46.4 °F41.0 °F81 %30.21 in10.0 miWNW (290°)8.1 mphClear
7:35 PM44.6 °F41.0 °F87 %30.22 in10.0 miWNW (290°)8.1 mphClear
7:55 PM44.6 °F41.0 °F87 %30.22 in10.0 miWNW (290°)6.9 mphClear
8:15 PM44.6 °F41.0 °F87 %30.21 in10.0 miWest (280°)8.1 mphClear
8:35 PM44.6 °F41.0 °F87 %30.21 in10.0 miWest (270°)3.5 mphClear
8:55 PM42.8 °F41.0 °F93 %30.21 in10.0 miWest (280°)6.9 mphClear
9:15 PM42.8 °F41.0 °F93 %30.21 in10.0 miWNW (290°)6.9 mphClear
9:35 PM42.8 °F41.0 °F93 %30.22 in10.0 miNW (310°)9.2 mphClear
9:55 PM41.0 °F41.0 °F100 %30.23 in10.0 miNW (310°)6.9 mphClear
10:15 PM41.0 °F41.0 °F100 %30.23 in10.0 miCalmScattered Clouds
10:35 PM41.0 °F41.0 °F100 %30.23 in10.0 miCalmMostly Cloudy
10:55 PM42.8 °F42.8 °F100 %30.23 in10.0 miCalmOvercast
11:15 PM41.0 °F41.0 °F100 %30.23 in10.0 miCalmOvercast
11:35 PM41.0 °F41.0 °F100 %30.22 in10.0 miCalmOvercast
11:55 PM41.0 °F41.0 °F100 %30.22 in10.0 miCalmOvercast
Hourly data recorded from KFOT, located miles away from Rohnerville, California







STORIES FROM OUR PARTNERS